www.pogodaiklimat.ru

Погода и климат >> Архив погоды >> Россия >> Новгородская область >> Демянск


ПОГОДА в Демянске

  • Прогноз погоды в Демянске
  • Монитор погоды в Демянске
  • Климат города

АРХИВ ПОГОДЫ в Демянске

Время (UTC), дата Ветер
(напр.,м/с)
 
Видим.   Явления Облачность Т
(С)
Тd
(С)
f
(%)
Тe
(С)
Тes
(С)
Комфортность P
(гПа)
Po
(гПа)
Тmin
(С)
Tmax
(С)
R
(мм)
R24
(мм)
S
(см)
09 8.11 ЮЗ 1 н/о н/о +4.8 +3.8 93 +3 +3 1024.8 1017.1
12 8.11 З 1 н/о н/о +4.9 +3.6 91 +4 +4 1024.5 1016.8
15 8.11 штиль 0 н/о н/о +3.8 +3.1 95 +3 +3 1024.4 1016.7 0.3
18 8.11 штиль 0 4000 м слабая морось 10/10 210 м
[St]
+3.5 +2.8 95 +2 +2 1024.7 1017.0 +5.3 0.4
21 8.11 штиль 0 н/о н/о +3.2 +2.7 97 +2 +2 1024.9 1017.2
00 9.11 штиль 0 н/о н/о +3.2 +2.6 96 +2 +2 1024.8 1017.1
03 9.11 З 1 н/о н/о +2.6 +2.0 96 +1 +1 1024.7 1016.9 +2.6 0.2
06 9.11 штиль 0 4000 м дымка 10/10 150 м
[St]
+2.6 +2.0 96 +1 +1 1025.0 1017.2 +2.5 0.0
09 9.11 ЮВ 1 н/о н/о +3.1 +2.1 93 +1 +1 1025.3 1017.6
12 9.11 Ю 1 н/о н/о +3.3 +1.3 87 +2 +2 1025.1 1017.4
15 9.11 Ю 1 н/о н/о +2.8 +1.1 89 +1 +1 1025.1 1017.3
18 9.11 ЮВ 2 50 км 10/10 400 м
[Cb calv]
+2.7 +0.4 85 -0 -0 1025.0 1017.2 +3.5
21 9.11 Ю 2 н/о н/о +2.5 +0.2 85 -1 -1 1025.6 1017.8
00 10.11 ЮВ 2 н/о н/о +2.3 +0.4 87 -1 -1 1025.3 1017.5
03 10.11 ЮВ 1 н/о н/о +2.5 +0.3 85 +1 +1 1025.1 1017.3 +2.2
06 10.11 ЮВ 2 50 км 10/10 600 м
[Cb calv]
+2.7 0.0 82 -0 -0 1025.9 1018.1 +2.2
09 10.11 ЮВ 3 н/о н/о +3.9 -0.1 75 0 0 1026.4 1018.7
12 10.11 ЮВ 3 н/о н/о +3.3 -0.3 77 -1 -1 1027.2 1019.4
15 10.11 ЮВ 2 н/о н/о +2.6 -0.1 82 -1 -1 1028.6 1020.8
18 10.11 ЮВ 3 50 км 10/10 480 м
[Cb calv]
+2.6 0.0 83 -1 -1 1030.0 1022.2 +3.9
21 10.11 В 3 н/о н/о +2.8 +0.3 84 -1 -1 1031.3 1023.5
00 11.11 ЮВ 3 н/о н/о +3.5 0.0 78 -0 -0 1032.6 1024.8
03 11.11 ЮВ 3 н/о н/о +3.4 +0.1 79 -0 -0 1033.5 1025.7 +2.1
06 11.11 ЮВ 3 4000 м слабая морось 10/10 360 м
[St]
+2.4 +0.9 90 -2 -2 1035.1 1027.3 +2.1 0.1
09 11.11 ЮВ 4 н/о н/о +2.7 +0.1 83 -2 -2 1036.3 1028.5
12 11.11 ЮВ 4 н/о н/о +2.9 -1.1 75 -2 -2 1037.0 1029.2
15 11.11 ЮВ 4 н/о н/о +2.3 -2.2 72 -2 -2 1037.8 1029.9 0.1
18 11.11 ЮВ 4 50 км 10/10 900 м
[Sc]
+1.0 -4.1 69 -4 -4 1038.3 1030.4 +3.4 0.0
21 11.11 ЮВ 4 н/о н/о +0.7 -5.2 65 -4 -4 1038.3 1030.4
00 12.11 Ю 4 н/о н/о +1.2 -4.4 66 -4 -4 1037.8 1029.9
03 12.11 Ю 2 н/о н/о +0.6 -4.3 70 -3 -3 1037.6 1029.7 +0.5
06 12.11 ЮВ 2 50 км 10/10 700 м
[Sc]
-1.1 -6.3 68 -5 -5 1037.6 1029.6 -1.1
09 12.11 ЮВ 3 н/о н/о -0.4 -6.4 64 -5 -5 1037.0 1029.1
12 12.11 Ю 2 н/о н/о +0.3 -5.2 67 -3 -3 1036.3 1028.4
15 12.11 Ю 3 н/о н/о +0.7 -5.0 66 -3 -3 1035.5 1027.6
18 12.11 Ю 3 50 км 10/10 930 м
[Sc]
+0.6 -5.4 64 -4 -4 1034.5 1026.6 +0.8
21 12.11 Ю 3 н/о н/о +0.2 -5.9 64 -4 -4 1034.0 1026.1
00 13.11 Ю 2 н/о н/о +0.1 -4.7 70 -3 -3 1032.9 1025.0
03 13.11 Ю 3 н/о н/о +0.4 -4.2 71 -4 -4 1031.2 1023.3 -0.2
06 13.11 Ю 3 4000 м слабый ливневой дождь 10/10 540 м
[Cb calv]
+0.1 -2.6 82 -4 -4 1029.1 1021.2 -0.2
09 13.11 Ю 4 н/о н/о +0.7 -1.5 85 -5 -5 1027.1 1019.3
12 13.11 Ю 3 н/о н/о +1.7 -1.0 82 -3 -3 1025.2 1017.4
15 13.11 Ю 4 н/о н/о +2.7 -1.5 74 -2 -2 1024.1 1016.3 2
18 13.11 Ю 2 4000 м слабый ливневой дождь 10/10 420 м
[Cb calv]
+1.9 -1.7 77 -1 -1 1023.2 1015.4 +2.7 2
21 13.11 Ю 1 н/о н/о +0.5 -0.8 91 -2 -2 1022.5 1014.7
00 14.11 Ю 2 н/о н/о +0.6 -0.8 90 -3 -3 1021.1 1013.3
03 14.11 Ю 1 н/о н/о +0.3 -0.6 94 -2 -2 1020.3 1012.5 +0.3 10
06 14.11 Ю 1 4000 м слабый ливневой снег 10/10 400 м
[Cb calv]
+0.2 -0.7 94 -2 -2 1020.0 1018.2 +0.2 12 5
09 14.11 штиль 0 н/о н/о -0.1 -1.2 92 -1 -1 1020.7 1012.9
12 14.11 штиль 0 н/о н/о -0.4 -1.5 92 -2 -2 1021.6 1013.8
15 14.11 штиль 0 н/о н/о -0.9 -1.9 93 -2 -2 1023.1 1015.3 9
18 14.11 штиль 0 4000 м слабый ливневой снег 10/10 240 м
[Cb calv]
-1.4 -2.5 92 -3 -3 1024.6 1016.7 +0.3 9
21 14.11 штиль 0 н/о н/о -1.6 -2.5 94 -3 -3 1026.3 1018.4
00 15.11 штиль 0 н/о н/о -1.8 -2.7 94 -3 -3 1027.9 1020.0
03 15.11 штиль 0 н/о н/о -2.5 -3.3 94 -4 -4 1029.9 1022.0 -2.6 4

 

Местоположение метеостанции Демянск (Новгородская область, Россия): широта 57.65 долгота 32.47 высота над уровнем моря 61 м.

В архиве по умолчанию представлена погода в Демянске за последнюю неделю. Архивные данные за месяц целиком и за предыдущие месяцы, начиная с января 2011 года, Вы можете получить, выбрав интересующий диапазон дат из раскрывающегося списка и нажав кнопку "Ввод!".


*Определитесь, кто Вы:
робот инопланетянин человек

Внимание! Время в таблицах - всемирное. Для получения местного времени необходимо прибавить поправку, которая в Демянске равна 3 ч.

Смотрите также архив погоды в соседних городах и на ближайших метеорологических станциях:

Погода в Валдае (Новгородская область, Россия) (60 км)
Погода в Крестцах (Новгородская область, Россия) (69 км)
Погода в Осташкове (Тверская область, Россия) (71 км)
Погода в Старой Руссе (Новгородская область, Россия) (80 км)
Погода в Окуловке (Новгородская область, Россия) (94 км)
Погода в Холме (Новгородская область, Россия) (95 км)
Погода в Бологом (Тверская область, Россия) (96 км)
Погода в Боровичах (Новгородская область, Россия) (120 км)
Погода в Великом Новгороде (Новгородская область, Россия) (120 км)
Погода в Вышнем Волочке (Тверская область, Россия) (125 км)

Пояснения к столбцам:

Ветер - указаны скорость ветра в м/с - средняя за 10 мин, порывы в срок и между сроками (в фигурных скобках) и направление, откуда дует ветер: С - северный, СВ - северо-восточный, В - восточный, ЮВ - юго-восточный, Ю - южный, ЮЗ - юго-западный, З - западный, СЗ - северо-западный.
Видимость - горизонтальная дальность видимости в метрах или километрах. При видимости от 1 до 10 км при отсутствии осадков обычно наблюдается дымка, при ухудшении видимости до 1 км и менее - туман. В сухую погоду видимость может ухудшаться дымом, пылью или мглою.
Явления - указаны атмосферные явления, наблюдавшиеся в срок или в последний час перед сроком; фигурными скобками обозначены явления, наблюдавшиеся между сроками (за 1-3 часа до срока); квадратными скобками обозначены град или гололедные отложения с указанием их диаметра в мм.
Облачность - указаны через наклонную черту общая и нижняя облачность в баллах и высота нижней границы облаков в метрах; квадратными скобками обозначены формы облаков: Ci - перистые, Cs - перисто-слоистые, Cc - перисто-кучевые, Ac - высококучевые, As - высокослоистые, Sc - слоисто-кучевые, Ns - слоисто-дождевые, Cu - кучевые, Cb - кучево-дождевые. Подробнее классификацию облаков см. в Атласе облаков (PDF).
T - Температура воздуха - температура, измеренная на высоте 2 м над землей.
Td - Температура точки росы - температура, при понижении до которой содержащийся в воздухе водяной пар достигнет насыщения.
f - Относительная влажность воздуха - влажноcть воздуха, измеренная на высоте 2 м над землей.
Te - Эффективная температура - температура, которую ощущает одетый по сезону человек в тени. Характеристика душности погоды. При расчете учитывается влияние влажности воздуха и скорости ветра на теплоощущения человека.
Tes - Эффективная температура на солнце - температура, которую ощущает человек, с поправкой на солнечный нагрев. Характеристика знойности погоды. Зависит от высоты солнца над горизонтом, облачности и скорости ветра. Ночью, в пасмурную погоду, а также при ветре 12 м/с и более поправка равна нулю.
P - Атмосферное давление - приведенное к уровню моря атмосферное давление.
Po - Атмосферное давление - измеренное на уровне метеостанции атмосферное давление.
Tmin - Минимальная температура - минимум температуры воздуха на высоте 2 м над землей.
Tmax - Максимальная температура - максимум температуры воздуха на высоте 2 м над землей.
R - Количество осадков - Количество выпавших осадков за период времени, мм. При наведении курсора мыши на число - период времени, за который выпало указанное количество осадков.
R24 - Количество осадков - Количество выпавших осадков за 24 часа, мм.
S - Снежный покров - Высота снежного покрова, см. При наведении курсора мыши на число - состояние снежного покрова и степень покрытия местности в баллах.